• In Russia
  • List of Countries
  • For 7 days
  • Water Temperature
  • Satellite Maps
  • Weather Map
  • Weather Widgets
  • user-avatar
    Login

    Hourly Weather Abovyan

    Today, 12 December, Wednesday

    Time Temperature Precipitation Wind Pressure Humidity
    00:00 +6°C° 0.9 mm 2 mps 668 mmHg 80%
    01:00 +6°C° 0.8 mm 2 mps 668 mmHg 81%
    02:00 +6°C° 0.8 mm 2 mps 668 mmHg 82%
    03:00 +5°C° 0.8 mm 3 mps 668 mmHg 83%
    04:00 +4°C° 0.4 mm 3 mps 668 mmHg 83%
    05:00 +4°C° 0.4 mm 3 mps 668 mmHg 83%
    06:00 +4°C° 0.4 mm 3 mps 668 mmHg 83%
    07:00 +4°C° 0.4 mm 4 mps 667 mmHg 82%
    08:00 +5°C° 0.4 mm 4 mps 667 mmHg 81%
    09:00 +5°C° 0.4 mm 4 mps 666 mmHg 80%
    10:00 +6°C° 0.4 mm 5 mps 666 mmHg 76%
    11:00 +7°C° 0.4 mm 6 mps 665 mmHg 73%
    12:00 +6°C° 0.4 mm 7 mps 665 mmHg 70%
    13:00 +8°C° 1.3 mm 6 mps 664 mmHg 70%
    14:00 +8°C° 1.3 mm 6 mps 664 mmHg 70%
    15:00 +8°C° 1.3 mm 5 mps 664 mmHg 70%
    16:00 +7°C° 1.5 mm 5 mps 664 mmHg 72%
    17:00 +7°C° 1.5 mm 4 mps 664 mmHg 75%
    18:00 +7°C° 1.5 mm 3 mps 664 mmHg 78%
    19:00 +6°C° 1.5 mm 4 mps 664 mmHg 79%
    20:00 +6°C° 1.5 mm 4 mps 664 mmHg 80%
    21:00 +6°C° 1.5 mm 4 mps 664 mmHg 81%
    22:00 +6°C° 1.4 mm 4 mps 664 mmHg 82%
    23:00 +5°C° 1.4 mm 3 mps 665 mmHg 83%

    Tomorrow, 13 December, Thursday

    Time Temperature Precipitation Wind Pressure Humidity
    00:00 +5°C° 1.4 mm 3 mps 665 mmHg 84%
    01:00 +5°C° 1.1 mm 3 mps 665 mmHg 85%
    02:00 +4°C° 1.1 mm 3 mps 665 mmHg 86%
    03:00 +4°C° 1.1 mm 4 mps 665 mmHg 87%
    04:00 +4°C° 0.3 mm 4 mps 665 mmHg 86%
    05:00 +3°C° 0.3 mm 3 mps 665 mmHg 84%
    06:00 +3°C° 0.3 mm 3 mps 665 mmHg 83%
    07:00 +3°C° 0.1 mm 3 mps 666 mmHg 81%
    08:00 +3°C° 0.1 mm 3 mps 666 mmHg 79%
    09:00 +3°C° 0.1 mm 3 mps 667 mmHg 78%
    10:00 +4°C° 0.2 mm 3 mps 667 mmHg 74%
    11:00 +5°C° 0.2 mm 3 mps 667 mmHg 71%
    12:00 +6°C° 0.2 mm 4 mps 668 mmHg 67%
    13:00 +6°C° 0.1 mm 4 mps 668 mmHg 66%
    14:00 +5°C° 0.1 mm 4 mps 668 mmHg 65%
    15:00 +5°C° 0.1 mm 3 mps 669 mmHg 64%
    16:00 +4°C° 0 mm 3 mps 669 mmHg 66%
    17:00 +4°C° 0 mm 2 mps 670 mmHg 67%
    18:00 +2°C° 0 mm 2 mps 670 mmHg 69%
    19:00 +2°C° 0 mm 2 mps 671 mmHg 70%
    20:00 +1°C° 0 mm 2 mps 671 mmHg 70%
    21:00 +1°C° 0 mm 2 mps 672 mmHg 70%
    22:00 -1°C° 0 mm 2 mps 672 mmHg 70%
    23:00 -1°C° 0 mm 2 mps 672 mmHg 70%

    Day after tomorrow, 14 December, Friday

    Time Temperature Precipitation Wind Pressure Humidity
    00:00 -2°C° 0 mm 2 mps 673 mmHg 70%
    01:00 -2°C° 0 mm 2 mps 673 mmHg 70%
    02:00 -2°C° 0 mm 2 mps 673 mmHg 70%
    03:00 -3°C° 0 mm 2 mps 673 mmHg 70%
    04:00 -3°C° 0 mm 2 mps 673 mmHg 70%
    05:00 -3°C° 0 mm 2 mps 674 mmHg 70%
    06:00 -3°C° 0 mm 2 mps 674 mmHg 70%
    07:00 -3°C° 0 mm 2 mps 674 mmHg 70%
    08:00 -2°C° 0 mm 2 mps 674 mmHg 69%
    09:00 -1°C° 0 mm 2 mps 675 mmHg 69%
    10:00 +1°C° 0 mm 2 mps 674 mmHg 67%
    11:00 +2°C° 0 mm 2 mps 674 mmHg 66%
    12:00 +3°C° 0 mm 2 mps 674 mmHg 65%
    13:00 +3°C° 0.1 mm 2 mps 673 mmHg 66%
    14:00 +3°C° 0.1 mm 2 mps 673 mmHg 67%
    15:00 +3°C° 0.1 mm 2 mps 673 mmHg 68%
    16:00 +3°C° 0.2 mm 2 mps 673 mmHg 70%
    17:00 +2°C° 0.2 mm 2 mps 673 mmHg 72%
    18:00 +2°C° 0.2 mm 2 mps 673 mmHg 74%
    19:00 +3°C° 0.2 mm 1 mps 673 mmHg 75%
    20:00 +2°C° 0.2 mm 1 mps 674 mmHg 76%
    21:00 +2°C° 0.2 mm 1 mps 674 mmHg 77%
    22:00 +2°C° 0.2 mm 1 mps 674 mmHg 77%
    23:00 +2°C° 0.2 mm 1 mps 674 mmHg 77%

    15 December, Saturday

    Time Temperature Precipitation Wind Pressure Humidity
    00:00 +2°C° 0.2 mm 1 mps 674 mmHg 78%
    01:00 +2°C° 0.1 mm 1 mps 675 mmHg 78%
    02:00 +1°C° 0.1 mm 1 mps 675 mmHg 77%
    03:00 +1°C° 0.1 mm 1 mps 675 mmHg 77%
    04:00 +1°C° 0.1 mm 1 mps 675 mmHg 77%
    05:00 0°C° 0.1 mm 1 mps 675 mmHg 77%
    06:00 0°C° 0.1 mm 1 mps 675 mmHg 76%
    07:00 +1°C° 0 mm 1 mps 676 mmHg 75%
    08:00 +1°C° 0 mm 1 mps 676 mmHg 74%
    09:00 +2°C° 0 mm 1 mps 677 mmHg 72%
    10:00 +3°C° 0 mm 1 mps 676 mmHg 70%
    11:00 +4°C° 0 mm 1 mps 676 mmHg 69%
    12:00 +5°C° 0 mm 1 mps 676 mmHg 67%
    13:00 +5°C° 0 mm 1 mps 676 mmHg 67%
    14:00 +5°C° 0 mm 1 mps 676 mmHg 67%
    15:00 +4°C° 0 mm 1 mps 676 mmHg 67%
    16:00 +3°C° 0 mm 1 mps 676 mmHg 67%
    17:00 +2°C° 0 mm 1 mps 676 mmHg 67%
    18:00 +1°C° 0 mm 1 mps 677 mmHg 67%
    19:00 +1°C° 0 mm 1 mps 677 mmHg 66%
    20:00 0°C° 0 mm 1 mps 677 mmHg 65%
    21:00 0°C° 0 mm 1 mps 677 mmHg 64%
    22:00 0°C° 0 mm 1 mps 677 mmHg 63%
    23:00 0°C° 0 mm 1 mps 677 mmHg 62%

    16 December, Sunday

    Time Temperature Precipitation Wind Pressure Humidity
    00:00 0°C° 0 mm 1 mps 677 mmHg 62%
    01:00 0°C° 0 mm 1 mps 677 mmHg 62%
    02:00 0°C° 0 mm 1 mps 677 mmHg 62%
    03:00 0°C° 0 mm 1 mps 677 mmHg 62%
    04:00 0°C° 0 mm 1 mps 677 mmHg 62%
    05:00 0°C° 0 mm 1 mps 677 mmHg 61%
    06:00 0°C° 0 mm 1 mps 676 mmHg 61%
    07:00 +1°C° 0 mm 1 mps 677 mmHg 61%
    08:00 +2°C° 0 mm 1 mps 677 mmHg 60%
    09:00 +3°C° 0 mm 1 mps 677 mmHg 59%
    10:00 +4°C° 0 mm 1 mps 677 mmHg 59%
    11:00 +4°C° 0 mm 2 mps 677 mmHg 58%
    12:00 +5°C° 0 mm 2 mps 677 mmHg 58%
    13:00 +5°C° 0 mm 2 mps 676 mmHg 58%
    14:00 +5°C° 0 mm 2 mps 676 mmHg 58%
    15:00 +6°C° 0 mm 2 mps 676 mmHg 58%
    16:00 +5°C° 0 mm 2 mps 676 mmHg 58%
    17:00 +4°C° 0 mm 2 mps 676 mmHg 57%
    18:00 +4°C° 0 mm 1 mps 676 mmHg 57%
    19:00 +4°C° 0 mm 1 mps 676 mmHg 57%
    20:00 +3°C° 0 mm 1 mps 676 mmHg 57%
    21:00 +3°C° 0 mm 1 mps 676 mmHg 57%
    22:00 +3°C° 0 mm 1 mps 676 mmHg 57%
    23:00 +3°C° 0 mm 1 mps 676 mmHg 58%

    17 December, Monday

    Time Temperature Precipitation Wind Pressure Humidity
    00:00 +3°C° 0 mm 1 mps 676 mmHg 58%
    01:00 +3°C° 0 mm 1 mps 675 mmHg 59%
    02:00 +2°C° 0 mm 1 mps 675 mmHg 59%
    03:00 +2°C° 0 mm 1 mps 675 mmHg 60%
    04:00 +2°C° 0 mm 1 mps 675 mmHg 60%
    05:00 +2°C° 0 mm 1 mps 674 mmHg 60%
    06:00 +2°C° 0 mm 1 mps 674 mmHg 61%
    07:00 +3°C° 0 mm 1 mps 674 mmHg 61%
    08:00 +3°C° 0 mm 1 mps 675 mmHg 62%
    09:00 +4°C° 0 mm 1 mps 675 mmHg 62%
    10:00 +5°C° 0 mm 1 mps 674 mmHg 62%
    11:00 +6°C° 0 mm 1 mps 674 mmHg 61%
    12:00 +7°C° 0 mm 1 mps 673 mmHg 61%
    13:00 +7°C° 0 mm 1 mps 673 mmHg 61%
    14:00 +7°C° 0 mm 1 mps 673 mmHg 61%
    15:00 +7°C° 0 mm 1 mps 672 mmHg 61%
    16:00 +7°C° 0.1 mm 1 mps 672 mmHg 62%
    17:00 +6°C° 0.1 mm 1 mps 673 mmHg 64%
    18:00 +5°C° 0.1 mm 1 mps 673 mmHg 65%
    19:00 +5°C° 0.1 mm 1 mps 673 mmHg 66%
    20:00 +5°C° 0.1 mm 1 mps 673 mmHg 67%
    21:00 +5°C° 0.1 mm 1 mps 673 mmHg 68%
    22:00 +5°C° 0.1 mm 1 mps 673 mmHg 70%
    23:00 +5°C° 0.1 mm 1 mps 673 mmHg 71%
    Show more